Time,TemperatureF,DewpointF,PressureIn,WindDirection,WindDirectionDegrees,WindSpeedMPH,WindSpeedGustMPH,Humidity,HourlyPrecipIn,Conditions,Clouds,dailyrainin,SoftwareType,DateUTC
2013-07-08 00:01:00,68.0,62.0,-100.00,West,280,4.0,5.0,83,-99.99,,,-99.99,,2013-07-08 05:01:00,
2013-07-08 00:12:00,68.0,62.0,-100.00,West,280,4.0,5.0,83,-99.99,,,-99.99,,2013-07-08 05:12:00,
2013-07-08 00:22:00,68.0,62.0,-100.00,West,280,4.0,5.0,83,-99.99,,,-99.99,,2013-07-08 05:22:00,
2013-07-08 00:43:00,66.0,62.0,-100.00,WNW,295,3.0,5.0,86,-99.99,,,-99.99,,2013-07-08 05:43:00,
2013-07-08 00:53:00,66.0,62.0,-100.00,WNW,295,3.0,5.0,86,-99.99,,,-99.99,,2013-07-08 05:53:00,
2013-07-08 01:01:00,66.0,63.0,-100.00,NW,305,1.0,2.0,89,-99.99,,,-99.99,,2013-07-08 06:01:00,
2013-07-08 01:11:00,66.0,63.0,-100.00,NW,305,1.0,2.0,89,-99.99,,,-99.99,,2013-07-08 06:11:00,
2013-07-08 01:22:00,66.0,63.0,-100.00,NW,305,1.0,2.0,89,-99.99,,,-99.99,,2013-07-08 06:22:00,
2013-07-08 01:43:00,66.0,63.0,-100.00,NW,305,1.0,2.0,90,-99.99,,,-99.99,,2013-07-08 06:43:00,
2013-07-08 01:53:00,66.0,63.0,-100.00,NW,305,1.0,2.0,90,-99.99,,,-99.99,,2013-07-08 06:53:00,
2013-07-08 02:02:00,65.0,63.0,-100.00,West,265,1.0,2.0,91,-99.99,,,-99.99,,2013-07-08 07:02:00,
2013-07-08 02:12:00,65.0,63.0,-100.00,West,265,1.0,2.0,91,-99.99,,,-99.99,,2013-07-08 07:12:00,
2013-07-08 02:22:00,65.0,63.0,-100.00,West,265,1.0,2.0,91,-99.99,,,-99.99,,2013-07-08 07:22:00,
2013-07-08 02:44:00,65.0,63.0,-100.00,West,260,3.0,4.0,93,-99.99,,,-99.99,,2013-07-08 07:44:00,
2013-07-08 02:53:00,65.0,63.0,-100.00,West,260,3.0,4.0,93,-99.99,,,-99.99,,2013-07-08 07:53:00,
2013-07-08 03:02:00,64.0,62.0,-100.00,WSW,255,3.0,4.0,94,-99.99,,,-99.99,,2013-07-08 08:02:00,
2013-07-08 03:12:00,64.0,62.0,-100.00,WSW,255,3.0,4.0,94,-99.99,,,-99.99,,2013-07-08 08:12:00,
2013-07-08 03:22:00,64.0,62.0,-100.00,WSW,255,3.0,4.0,94,-99.99,,,-99.99,,2013-07-08 08:22:00,
2013-07-08 03:42:00,64.0,63.0,-100.00,West,275,4.0,5.0,96,-99.99,,,-99.99,,2013-07-08 08:42:00,
2013-07-08 03:53:00,64.0,63.0,-100.00,West,275,4.0,5.0,96,-99.99,,,-99.99,,2013-07-08 08:53:00,
2013-07-08 04:01:00,63.0,62.0,-100.00,WSW,255,3.0,4.0,97,-99.99,,,-99.99,,2013-07-08 09:01:00,
2013-07-08 04:11:00,63.0,62.0,-100.00,WSW,255,3.0,4.0,97,-99.99,,,-99.99,,2013-07-08 09:11:00,
2013-07-08 04:22:00,63.0,62.0,-100.00,WSW,255,3.0,4.0,97,-99.99,,,-99.99,,2013-07-08 09:22:00,
2013-07-08 04:34:00,63.0,63.0,-100.00,WSW,250,1.0,2.0,98,-99.99,,,-99.99,,2013-07-08 09:34:00,
2013-07-08 04:43:00,63.0,63.0,-100.00,WSW,250,1.0,2.0,98,-99.99,,,-99.99,,2013-07-08 09:43:00,
2013-07-08 04:53:00,63.0,63.0,-100.00,WSW,250,1.0,2.0,98,-99.99,,,-99.99,,2013-07-08 09:53:00,
2013-07-08 05:02:00,63.0,62.0,-100.00,WSW,255,1.0,1.0,98,-99.99,,,-99.99,,2013-07-08 10:02:00,
2013-07-08 05:11:00,63.0,62.0,-100.00,WSW,255,1.0,1.0,98,-99.99,,,-99.99,,2013-07-08 10:11:00,
2013-07-08 05:22:00,63.0,62.0,-100.00,WSW,255,1.0,1.0,98,-99.99,,,-99.99,,2013-07-08 10:22:00,
2013-07-08 05:43:00,63.0,62.0,-100.00,NE,55,0.0,1.0,98,-99.99,,,-99.99,,2013-07-08 10:43:00,
2013-07-08 05:53:00,63.0,62.0,-100.00,NE,55,0.0,1.0,98,-99.99,,,-99.99,,2013-07-08 10:53:00,
2013-07-08 06:02:00,63.0,62.0,-100.00,ENE,65,0.0,1.0,98,-99.99,,,-99.99,,2013-07-08 11:02:00,
2013-07-08 06:11:00,63.0,62.0,-100.00,ENE,65,0.0,1.0,98,-99.99,,,-99.99,,2013-07-08 11:11:00,
2013-07-08 06:22:00,63.0,62.0,-100.00,ENE,65,0.0,1.0,98,-99.99,,,-99.99,,2013-07-08 11:22:00,
2013-07-08 06:43:00,62.0,62.0,-100.00,South,190,0.0,2.0,98,-99.99,,,-99.99,,2013-07-08 11:43:00,
2013-07-08 06:53:00,62.0,62.0,-100.00,South,190,0.0,2.0,98,-99.99,,,-99.99,,2013-07-08 11:53:00,
2013-07-08 07:01:00,64.0,63.0,-100.00,SE,145,2.0,3.0,97,-99.99,,,-99.99,,2013-07-08 12:01:00,
2013-07-08 07:11:00,64.0,63.0,-100.00,SE,145,2.0,3.0,97,-99.99,,,-99.99,,2013-07-08 12:11:00,
2013-07-08 07:22:00,64.0,63.0,-100.00,SE,145,2.0,3.0,97,-99.99,,,-99.99,,2013-07-08 12:22:00,
2013-07-08 07:43:00,65.0,63.0,-100.00,SSW,200,2.0,4.0,93,-99.99,,,-99.99,,2013-07-08 12:43:00,
2013-07-08 07:53:00,65.0,63.0,-100.00,SSW,200,2.0,4.0,93,-99.99,,,-99.99,,2013-07-08 12:53:00,
2013-07-08 08:02:00,69.0,63.0,-100.00,SE,145,1.0,2.0,83,-99.99,,,-99.99,,2013-07-08 13:02:00,
2013-07-08 08:11:00,69.0,63.0,-100.00,SE,145,1.0,2.0,83,-99.99,,,-99.99,,2013-07-08 13:11:00,
2013-07-08 08:22:00,69.0,63.0,-100.00,SE,145,1.0,2.0,83,-99.99,,,-99.99,,2013-07-08 13:22:00,
2013-07-08 08:42:00,71.0,64.0,-100.00,SW,230,0.0,2.0,78,-99.99,,,-99.99,,2013-07-08 13:42:00,
2013-07-08 08:53:00,71.0,64.0,-100.00,SW,230,0.0,2.0,78,-99.99,,,-99.99,,2013-07-08 13:53:00,
2013-07-08 09:02:00,74.0,63.0,-100.00,NNE,20,2.0,4.0,70,-99.99,,,-99.99,,2013-07-08 14:02:00,
2013-07-08 09:12:00,74.0,63.0,-100.00,NNE,20,2.0,4.0,70,-99.99,,,-99.99,,2013-07-08 14:12:00,
2013-07-08 09:22:00,74.0,63.0,-100.00,NNE,20,2.0,4.0,70,-99.99,,,-99.99,,2013-07-08 14:22:00,
2013-07-08 09:43:00,76.0,64.0,-100.00,SE,135,2.0,4.0,66,-99.99,,,-99.99,,2013-07-08 14:43:00,
2013-07-08 09:53:00,76.0,64.0,-100.00,SE,135,2.0,4.0,66,-99.99,,,-99.99,,2013-07-08 14:53:00,
2013-07-08 10:02:00,79.0,64.0,-100.00,SSE,165,1.0,5.0,61,-99.99,,,-99.99,,2013-07-08 15:02:00,
2013-07-08 10:11:00,79.0,64.0,-100.00,SSE,165,1.0,5.0,61,-99.99,,,-99.99,,2013-07-08 15:11:00,
2013-07-08 10:22:00,79.0,64.0,-100.00,SSE,165,1.0,5.0,61,-99.99,,,-99.99,,2013-07-08 15:22:00,
2013-07-08 10:33:00,79.0,60.0,-100.00,SSW,200,6.0,8.0,53,-99.99,,,-99.99,,2013-07-08 15:33:00,
2013-07-08 10:43:00,79.0,60.0,-100.00,SSW,200,6.0,8.0,53,-99.99,,,-99.99,,2013-07-08 15:43:00,
2013-07-08 10:53:00,79.0,60.0,-100.00,SSW,200,6.0,8.0,53,-99.99,,,-99.99,,2013-07-08 15:53:00,
2013-07-08 11:01:00,81.0,60.0,-100.00,SSE,160,6.0,9.0,50,-99.99,,,-99.99,,2013-07-08 16:01:00,
2013-07-08 11:11:00,81.0,60.0,-100.00,SSE,160,6.0,9.0,50,-99.99,,,-99.99,,2013-07-08 16:11:00,
2013-07-08 11:22:00,81.0,60.0,-100.00,SSE,160,6.0,9.0,50,-99.99,,,-99.99,,2013-07-08 16:22:00,
2013-07-08 11:35:00,81.0,59.0,-100.00,South,170,7.0,11.0,48,-99.99,,,-99.99,,2013-07-08 16:35:00,
2013-07-08 11:43:00,82.0,59.0,-100.00,SSE,150,5.0,12.0,46,-99.99,,,-99.99,,2013-07-08 16:43:00,
2013-07-08 11:57:00,82.0,59.0,-100.00,SSE,150,5.0,12.0,46,-99.99,,,-99.99,,2013-07-08 16:57:00,
2013-07-08 13:06:00,82.0,59.0,-100.00,SSE,165,6.0,8.0,46,-99.99,,,-99.99,,2013-07-08 18:06:00,
2013-07-08 14:05:00,84.0,59.0,-100.00,South,180,8.0,13.0,43,-99.99,,,-99.99,,2013-07-08 19:05:00,
2013-07-08 14:19:00,83.0,60.0,-100.00,South,185,7.0,15.0,46,-99.99,,,-99.99,,2013-07-08 19:19:00,
2013-07-08 14:56:00,84.0,59.0,-100.00,South,180,8.0,13.0,43,-99.99,,,-99.99,,2013-07-08 19:56:00,
2013-07-08 15:04:00,83.0,60.0,-100.00,South,180,9.0,14.0,46,-99.99,,,-99.99,,2013-07-08 20:04:00,
2013-07-08 15:10:00,83.0,60.0,-100.00,South,190,7.0,14.0,46,-99.99,,,-99.99,,2013-07-08 20:10:00,
2013-07-08 15:29:00,83.0,60.0,-100.00,South,190,7.0,14.0,46,-99.99,,,-99.99,,2013-07-08 20:29:00,
2013-07-08 15:40:00,83.0,60.0,-100.00,South,180,9.0,14.0,46,-99.99,,,-99.99,,2013-07-08 20:40:00,
2013-07-08 15:55:00,83.0,60.0,-100.00,South,180,9.0,14.0,46,-99.99,,,-99.99,,2013-07-08 20:55:00,
2013-07-08 16:10:00,86.0,60.0,-100.00,South,175,6.0,17.0,41,-99.99,,,-99.99,,2013-07-08 21:10:00,
2013-07-08 16:56:00,87.0,60.0,-100.00,South,180,7.0,14.0,41,-99.99,,,-99.99,,2013-07-08 21:56:00,
2013-07-08 17:12:00,87.0,61.0,-100.00,SSE,160,10.0,16.0,41,-99.99,,,-99.99,,2013-07-08 22:12:00,
2013-07-08 17:21:00,87.0,61.0,-100.00,SSE,160,10.0,16.0,41,-99.99,,,-99.99,,2013-07-08 22:21:00,
2013-07-08 17:29:00,87.0,61.0,-100.00,SSE,160,10.0,16.0,41,-99.99,,,-99.99,,2013-07-08 22:29:00,
2013-07-08 18:05:00,87.0,60.0,-100.00,SSW,200,9.0,15.0,40,-99.99,,,-99.99,,2013-07-08 23:05:00,
2013-07-08 18:11:00,87.0,61.0,-100.00,South,185,4.0,16.0,41,-99.99,,,-99.99,,2013-07-08 23:11:00,
2013-07-08 18:18:00,87.0,61.0,-100.00,South,185,4.0,16.0,41,-99.99,,,-99.99,,2013-07-08 23:18:00,
2013-07-08 18:30:00,87.0,61.0,-100.00,South,185,4.0,16.0,41,-99.99,,,-99.99,,2013-07-08 23:30:00,
2013-07-08 18:59:00,87.0,60.0,-100.00,SSW,200,9.0,15.0,40,-99.99,,,-99.99,,2013-07-08 23:59:00,
2013-07-08 20:31:00,87.0,60.0,-100.00,South,170,5.0,12.0,40,-99.99,,,-99.99,,2013-07-09 01:31:00,
2013-07-08 21:00:00,87.0,62.0,-100.00,South,180,6.0,10.0,43,-99.99,,,-99.99,,2013-07-09 02:00:00,
2013-07-08 21:05:00,82.0,61.0,-100.00,SSE,165,7.0,12.0,48,-99.99,,,-99.99,,2013-07-09 02:05:00,
2013-07-08 21:22:00,-999.0,-99.9,-100.00,South,180,9.0,12.0,45,-99.99,,,-99.99,,2013-07-09 02:22:00,
2013-07-08 22:00:00,82.0,61.0,-100.00,SSE,165,7.0,12.0,48,-99.99,,,-99.99,,2013-07-09 03:00:00,
2013-07-08 22:20:00,81.0,60.0,-100.00,South,175,7.0,12.0,48,-99.99,,,-99.99,,2013-07-09 03:20:00,
2013-07-08 22:30:00,81.0,60.0,-100.00,South,175,7.0,12.0,48,-99.99,,,-99.99,,2013-07-09 03:30:00,
2013-07-08 22:59:00,81.0,60.0,-100.00,SSE,165,6.0,9.0,49,-99.99,,,-99.99,,2013-07-09 03:59:00,
2013-07-08 23:02:00,81.0,60.0,-100.00,SSE,165,6.0,9.0,49,-99.99,,,-99.99,,2013-07-09 04:02:00,